ICE18L KBOS-BIKF

Flight info

Callsign ICE18L
Flight time 4h 28m
Altitude 35000
Route LBSTA8 LBSTA DCT EBONY N661B PELTU/M078F370 DCT 55N050W 60N040W 63N030W DCT EPENI DCT ELDIS ELDIS4N
Aircraft B38M/M-SDE1FGHILORVWXY/HB1

Departure

Time 2026-05-07 23:35
Airport Boston Logan International Airport (KBOS)

Arrival

Time 2026-05-08 04:03
Airport Keflavik International Airport (BIKF)
Time Latitude Longitude Altitude Speed Heading
2026-05-07 23:14 42.37075 -71.01863 28 ft 0 kts 211°
2026-05-07 23:22 42.37080 -71.01859 28 ft 4 kts 211°
2026-05-07 23:22 42.37103 -71.01840 28 ft 4 kts 211°
2026-05-07 23:23 42.37122 -71.01824 28 ft 4 kts 206°
2026-05-07 23:23 42.37146 -71.01818 28 ft 4 kts 163°
2026-05-07 23:23 42.37164 -71.01836 28 ft 3 kts 123°
2026-05-07 23:23 42.37177 -71.01862 28 ft 1 kts 123°
2026-05-07 23:26 42.37175 -71.01859 28 ft 2 kts 123°
2026-05-07 23:26 42.37147 -71.01800 28 ft 14 kts 123°
2026-05-07 23:26 42.37083 -71.01671 28 ft 18 kts 129°
2026-05-07 23:27 42.36902 -71.01419 28 ft 20 kts 135°
2026-05-07 23:27 42.36804 -71.01289 28 ft 19 kts 137°
2026-05-07 23:27 42.36706 -71.01246 28 ft 15 kts 192°
2026-05-07 23:28 42.36603 -71.01285 28 ft 16 kts 198°
2026-05-07 23:28 42.36494 -71.01351 28 ft 18 kts 205°
2026-05-07 23:28 42.36394 -71.01399 28 ft 12 kts 180°
2026-05-07 23:28 42.36337 -71.01318 28 ft 14 kts 121°
2026-05-07 23:29 42.36272 -71.01175 28 ft 22 kts 119°
2026-05-07 23:29 42.36204 -71.00977 28 ft 24 kts 114°
2026-05-07 23:29 42.36136 -71.00768 28 ft 25 kts 114°
2026-05-07 23:29 42.36077 -71.00549 28 ft 26 kts 109°
2026-05-07 23:30 42.36019 -71.00316 28 ft 26 kts 109°
2026-05-07 23:30 42.35956 -71.00095 28 ft 25 kts 121°
2026-05-07 23:30 42.35838 -70.99924 28 ft 25 kts 135°
2026-05-07 23:30 42.35717 -70.99764 28 ft 23 kts 135°
2026-05-07 23:31 42.35611 -70.99620 28 ft 20 kts 135°
2026-05-07 23:31 42.35530 -70.99513 28 ft 14 kts 136°
2026-05-07 23:31 42.35489 -70.99419 28 ft 10 kts 88°
2026-05-07 23:31 42.35494 -70.99381 28 ft 0 kts 76°
2026-05-07 23:33 42.35498 -70.99359 28 ft 8 kts 76°
2026-05-07 23:33 42.35523 -70.99271 28 ft 8 kts 37°
2026-05-07 23:34 42.35567 -70.99302 28 ft 10 kts 315°
2026-05-07 23:34 42.35740 -70.99534 28 ft 69 kts 315°
2026-05-07 23:34 42.36242 -71.00207 25 ft 132 kts 315°
2026-05-07 23:34 42.36996 -71.01228 187 ft 165 kts 312°
2026-05-07 23:35 42.37834 -71.02356 833 ft 170 kts 315°
2026-05-07 23:35 42.38541 -71.03584 1720 ft 166 kts 301°
2026-05-07 23:35 42.39168 -71.05009 2152 ft 188 kts 301°
2026-05-07 23:35 42.39881 -71.06649 2569 ft 215 kts 300°
2026-05-07 23:36 42.40662 -71.08453 3306 ft 224 kts 302°
2026-05-07 23:36 42.41794 -71.09986 3996 ft 242 kts 329°
2026-05-07 23:36 42.43378 -71.10936 4787 ft 252 kts 335°
2026-05-07 23:36 42.44986 -71.11841 5734 ft 256 kts 337°
2026-05-07 23:37 42.46785 -71.12143 6673 ft 264 kts
2026-05-07 23:37 42.48514 -71.11255 7451 ft 279 kts 28°
2026-05-07 23:37 42.49990 -71.09447 8274 ft 290 kts 47°
2026-05-07 23:37 42.51290 -71.07310 9036 ft 298 kts 45°
2026-05-07 23:38 42.52630 -71.05178 9810 ft 304 kts 45°
2026-05-07 23:38 42.54022 -71.02966 10405 ft 315 kts 45°
2026-05-07 23:38 42.55495 -71.00640 10759 ft 335 kts 45°
2026-05-07 23:38 42.57048 -70.98190 11208 ft 350 kts 45°
2026-05-07 23:39 42.58653 -70.95645 11743 ft 361 kts 45°
2026-05-07 23:39 42.60305 -70.93018 12297 ft 371 kts 45°
2026-05-07 23:39 42.61440 -70.91207 12767 ft 375 kts 45°
2026-05-07 23:39 42.63141 -70.88484 13426 ft 381 kts 46°
2026-05-07 23:40 42.64873 -70.85710 13953 ft 389 kts 46°
2026-05-07 23:40 42.66636 -70.82881 14513 ft 395 kts 46°
2026-05-07 23:40 42.68422 -70.80012 15064 ft 401 kts 46°
2026-05-07 23:40 42.70235 -70.77099 15616 ft 407 kts 47°
2026-05-07 23:41 42.72049 -70.74180 16147 ft 412 kts 47°
2026-05-07 23:41 42.73913 -70.71177 16675 ft 418 kts 47°
2026-05-07 23:41 42.75803 -70.68131 17197 ft 423 kts 47°
2026-05-07 23:41 42.77708 -70.65055 17793 ft 427 kts 47°
2026-05-07 23:42 42.79647 -70.61937 17998 ft 432 kts 47°
2026-05-07 23:42 42.81628 -70.58878 17970 ft 430 kts 46°
2026-05-07 23:42 42.83602 -70.55823 17996 ft 430 kts 46°
2026-05-07 23:42 42.85577 -70.52760 17957 ft 430 kts 46°
2026-05-07 23:43 42.87557 -70.49679 17982 ft 433 kts 46°
2026-05-07 23:43 42.89542 -70.46589 17995 ft 433 kts 46°
2026-05-07 23:43 42.91527 -70.43495 18023 ft 433 kts 46°
2026-05-07 23:43 42.93507 -70.40405 18010 ft 431 kts 46°
2026-05-07 23:44 42.95479 -70.37324 17998 ft 430 kts 46°
2026-05-07 23:44 42.97448 -70.34246 17991 ft 430 kts 46°
2026-05-07 23:44 42.99415 -70.31167 17999 ft 430 kts 46°
2026-05-07 23:44 43.01382 -70.28084 18004 ft 430 kts 46°
2026-05-07 23:45 43.03349 -70.24999 18057 ft 432 kts 47°
2026-05-07 23:45 43.05319 -70.21905 18565 ft 433 kts 46°
2026-05-07 23:45 43.07306 -70.18782 18971 ft 438 kts 46°
2026-05-07 23:45 43.09318 -70.15617 19356 ft 444 kts 46°
2026-05-07 23:46 43.11349 -70.12416 19822 ft 447 kts 46°
2026-05-07 23:46 43.13397 -70.09187 20265 ft 451 kts 46°
2026-05-07 23:46 43.15455 -70.05936 20730 ft 454 kts 46°
2026-05-07 23:46 43.17536 -70.02647 21181 ft 458 kts 46°
2026-05-07 23:47 43.19600 -69.99381 21617 ft 461 kts 46°
2026-05-07 23:47 43.21708 -69.96041 22097 ft 464 kts 46°
2026-05-07 23:47 43.23821 -69.92689 22568 ft 466 kts 46°
2026-05-07 23:47 43.25954 -69.89302 22980 ft 470 kts 46°
2026-05-07 23:48 43.28098 -69.85893 23403 ft 473 kts 46°
2026-05-07 23:48 43.30254 -69.82461 23753 ft 476 kts 46°
2026-05-07 23:48 43.32422 -69.79005 24117 ft 479 kts 47°
2026-05-07 23:48 43.34597 -69.75536 24465 ft 481 kts 47°
2026-05-07 23:49 43.36789 -69.72032 24719 ft 486 kts 47°
2026-05-07 23:49 43.39004 -69.68490 24973 ft 491 kts 47°
2026-05-07 23:49 43.41233 -69.64920 25315 ft 493 kts 47°
2026-05-07 23:49 43.43474 -69.61328 25623 ft 496 kts 47°
2026-05-07 23:50 43.45725 -69.57713 25942 ft 499 kts 48°
2026-05-07 23:50 43.47989 -69.54074 26263 ft 501 kts 48°
2026-05-07 23:50 43.50260 -69.50419 26570 ft 504 kts 48°
2026-05-07 23:50 43.52545 -69.46739 26961 ft 505 kts 48°
2026-05-07 23:51 43.54824 -69.43060 27356 ft 505 kts 48°
2026-05-07 23:51 43.57113 -69.39362 27620 ft 509 kts 48°
2026-05-07 23:51 43.59416 -69.35637 27930 ft 511 kts 48°
2026-05-07 23:51 43.61724 -69.31898 28216 ft 513 kts 49°
2026-05-07 23:52 43.64044 -69.28136 28511 ft 516 kts 49°
2026-05-07 23:52 43.66342 -69.24404 28817 ft 518 kts 49°
2026-05-07 23:52 43.68680 -69.20601 29057 ft 520 kts 49°
2026-05-07 23:52 43.71025 -69.16784 29333 ft 523 kts 49°
2026-05-07 23:53 43.73383 -69.12939 29607 ft 525 kts 49°
2026-05-07 23:53 43.75747 -69.09079 29867 ft 527 kts 49°
2026-05-07 23:53 43.78118 -69.05203 30076 ft 529 kts 49°
2026-05-07 23:53 43.80501 -69.01302 30235 ft 531 kts 50°
2026-05-07 23:54 43.85333 -68.93377 30377 ft 544 kts 50°
2026-05-07 23:54 43.87777 -68.89359 30602 ft 545 kts 50°
2026-05-07 23:54 43.90223 -68.85334 30791 ft 548 kts 50°
2026-05-07 23:55 43.92680 -68.81283 31014 ft 549 kts 50°
2026-05-07 23:55 43.95142 -68.77219 31230 ft 551 kts 50°
2026-05-07 23:55 43.97612 -68.73136 31455 ft 553 kts 50°
2026-05-07 23:55 44.00086 -68.69041 31676 ft 554 kts 50°
2026-05-07 23:56 44.02569 -68.64924 31870 ft 557 kts 50°
2026-05-07 23:56 44.05053 -68.60800 32069 ft 558 kts 50°
2026-05-07 23:56 44.07549 -68.56650 32251 ft 560 kts 50°
2026-05-07 23:56 44.10053 -68.52481 32450 ft 562 kts 50°
2026-05-07 23:57 44.12560 -68.48302 32683 ft 563 kts 50°
2026-05-07 23:57 44.15069 -68.44111 32897 ft 564 kts 50°
2026-05-07 23:57 44.17590 -68.39896 33049 ft 567 kts 50°
2026-05-07 23:57 44.20110 -68.35675 33284 ft 567 kts 51°
2026-05-07 23:58 44.22634 -68.31442 33521 ft 567 kts 51°
2026-05-07 23:58 44.25157 -68.27206 33726 ft 568 kts 51°
2026-05-07 23:58 44.30239 -68.18650 33782 ft 577 kts 51°
2026-05-07 23:59 44.32768 -68.14383 33938 ft 578 kts 51°
2026-05-07 23:59 44.35332 -68.10052 34166 ft 578 kts 51°
2026-05-07 23:59 44.37889 -68.05724 34403 ft 577 kts 51°
2026-05-07 23:59 44.40443 -68.01397 34648 ft 576 kts 51°
2026-05-08 00:00 44.42992 -67.97069 34764 ft 576 kts 51°
2026-05-08 00:00 44.45538 -67.92739 34734 ft 576 kts 51°
2026-05-08 00:00 44.50612 -67.84095 34733 ft 575 kts 51°
2026-05-08 00:01 44.55685 -67.75425 34728 ft 578 kts 51°
2026-05-08 00:01 44.60787 -67.66679 34726 ft 579 kts 51°
2026-05-08 00:02 44.65880 -67.57922 34724 ft 579 kts 51°
2026-05-08 00:02 44.70964 -67.49154 34692 ft 579 kts 51°
2026-05-08 00:03 44.76065 -67.40335 34744 ft 583 kts 51°
2026-05-08 00:03 44.81197 -67.31436 34727 ft 586 kts 51°
2026-05-08 00:04 44.86292 -67.22573 34759 ft 586 kts 51°
2026-05-08 00:04 44.91612 -67.13905 34732 ft 583 kts 42°
2026-05-08 00:05 44.97483 -67.05960 34725 ft 584 kts 42°
2026-05-08 00:05 45.03376 -66.98039 34742 ft 584 kts 42°
2026-05-08 00:06 45.09254 -66.90114 34723 ft 583 kts 42°
2026-05-08 00:06 45.15126 -66.82175 34718 ft 584 kts 42°
2026-05-08 00:07 45.20988 -66.74226 34729 ft 583 kts 42°
2026-05-08 00:07 45.26835 -66.66274 34704 ft 581 kts 42°
2026-05-08 00:08 45.32674 -66.58308 34702 ft 581 kts 42°
2026-05-08 00:08 45.38462 -66.50389 34631 ft 580 kts 42°
2026-05-08 00:09 45.44282 -66.42402 34710 ft 583 kts 42°
2026-05-08 00:09 45.50146 -66.34329 34690 ft 589 kts 43°
2026-05-08 00:10 45.56027 -66.26209 34691 ft 586 kts 42°
2026-05-08 00:10 45.61878 -66.18104 34693 ft 586 kts 42°
2026-05-08 00:11 45.67730 -66.09975 34697 ft 587 kts 42°
2026-05-08 00:11 45.73573 -66.01831 34686 ft 586 kts 43°
2026-05-08 00:12 45.79411 -65.93672 34687 ft 586 kts 43°
2026-05-08 00:12 45.85237 -65.85502 34712 ft 584 kts 43°
2026-05-08 00:13 45.91020 -65.77368 34686 ft 581 kts 43°
2026-05-08 00:13 45.96800 -65.69213 34676 ft 582 kts 43°
2026-05-08 00:14 46.02565 -65.61054 34693 ft 580 kts 43°
2026-05-08 00:14 46.08299 -65.52914 34679 ft 578 kts 43°
2026-05-08 00:15 46.14025 -65.44760 34672 ft 579 kts 43°
2026-05-08 00:15 46.19749 -65.36583 34679 ft 579 kts 43°
2026-05-08 00:16 46.25463 -65.28395 34630 ft 580 kts 43°
2026-05-08 00:16 46.31173 -65.20190 34680 ft 585 kts 43°
2026-05-08 00:17 46.36945 -65.11866 34677 ft 584 kts 43°
2026-05-08 00:17 46.42684 -65.03566 34688 ft 584 kts 43°
2026-05-08 00:18 46.48426 -64.95234 34681 ft 584 kts 43°
2026-05-08 00:18 46.54146 -64.86909 34676 ft 581 kts 43°
2026-05-08 00:19 46.59849 -64.78581 34688 ft 581 kts 44°
2026-05-08 00:19 46.65542 -64.70242 34704 ft 581 kts 44°
2026-05-08 00:20 46.71214 -64.61907 34681 ft 577 kts 44°
2026-05-08 00:20 46.76864 -64.53578 34684 ft 578 kts 44°
2026-05-08 00:21 46.82506 -64.45235 34706 ft 578 kts 44°
2026-05-08 00:21 46.88092 -64.36949 34690 ft 573 kts 44°
2026-05-08 00:22 46.93685 -64.28626 34696 ft 574 kts 44°
2026-05-08 00:22 46.99275 -64.20280 34719 ft 574 kts 44°
2026-05-08 00:23 47.04825 -64.11968 34689 ft 569 kts 44°
2026-05-08 00:23 47.10361 -64.03651 34694 ft 570 kts 44°
2026-05-08 00:24 47.15895 -63.95310 34691 ft 570 kts 44°
2026-05-08 00:24 47.21414 -63.86967 34681 ft 567 kts 44°
2026-05-08 00:25 47.26913 -63.78626 34686 ft 568 kts 44°
2026-05-08 00:25 47.32411 -63.70260 34696 ft 568 kts 44°
2026-05-08 00:26 47.36958 -63.63322 34683 ft 565 kts 44°
2026-05-08 00:26 47.43295 -63.53620 34685 ft 565 kts 44°
2026-05-08 00:27 47.48747 -63.45245 34684 ft 565 kts 45°
2026-05-08 00:27 47.53264 -63.38286 34692 ft 562 kts 45°
2026-05-08 00:28 47.58662 -63.29946 34686 ft 561 kts 45°
2026-05-08 00:28 47.64059 -63.21579 34691 ft 561 kts 45°
2026-05-08 00:29 47.69447 -63.13201 34702 ft 559 kts 45°
2026-05-08 00:29 47.74800 -63.04849 34693 ft 559 kts 45°
2026-05-08 00:30 47.80157 -62.96466 34698 ft 559 kts 45°
2026-05-08 00:30 47.85511 -62.88061 34698 ft 559 kts 45°
2026-05-08 00:31 47.90854 -62.79644 34694 ft 559 kts 45°
2026-05-08 00:31 47.96189 -62.71215 34632 ft 559 kts 45°
2026-05-08 00:32 48.01538 -62.62735 34714 ft 561 kts 45°
2026-05-08 00:32 48.06832 -62.54315 34688 ft 558 kts 45°
2026-05-08 00:33 48.12152 -62.45827 34695 ft 559 kts 45°
2026-05-08 00:33 48.17468 -62.37318 34688 ft 558 kts 46°
2026-05-08 00:34 48.22755 -62.28827 34689 ft 556 kts 46°
2026-05-08 00:34 48.28029 -62.20329 34687 ft 556 kts 46°
2026-05-08 00:35 48.33305 -62.11802 34699 ft 557 kts 46°
2026-05-08 00:35 48.38515 -62.03353 34685 ft 552 kts 46°
2026-05-08 00:36 48.43737 -61.94857 34685 ft 553 kts 46°
2026-05-08 00:36 48.48956 -61.86339 34683 ft 553 kts 46°
2026-05-08 00:37 48.54159 -61.77818 34680 ft 550 kts 46°
2026-05-08 00:38 48.61921 -61.65055 34675 ft 550 kts 47°
2026-05-08 00:38 48.67088 -61.56525 34684 ft 550 kts 47°
2026-05-08 00:39 48.72237 -61.47995 34672 ft 547 kts 47°
2026-05-08 00:39 48.77336 -61.39522 34673 ft 548 kts 47°
2026-05-08 00:40 48.82462 -61.30976 34665 ft 548 kts 47°
2026-05-08 00:40 48.87580 -61.22415 34654 ft 545 kts 47°
2026-05-08 00:41 48.92664 -61.13884 34661 ft 544 kts 47°
2026-05-08 00:41 48.97745 -61.05329 34655 ft 544 kts 47°
2026-05-08 00:42 49.02815 -60.96764 34661 ft 543 kts 48°
2026-05-08 00:42 49.07852 -60.88227 34648 ft 541 kts 48°
2026-05-08 00:43 49.12884 -60.79671 34656 ft 541 kts 48°
2026-05-08 00:43 49.17876 -60.71155 34646 ft 542 kts 48°
2026-05-08 00:44 49.22875 -60.62599 34645 ft 537 kts 49°
2026-05-08 00:44 49.27847 -60.54061 34656 ft 538 kts 49°
2026-05-08 00:45 49.32819 -60.45496 34646 ft 537 kts 49°
2026-05-08 00:45 49.37779 -60.36921 34649 ft 536 kts 50°
2026-05-08 00:46 49.42709 -60.28373 34645 ft 534 kts 50°
2026-05-08 00:46 49.47638 -60.19797 34648 ft 535 kts 50°
2026-05-08 00:47 49.52529 -60.11259 34640 ft 535 kts 50°
2026-05-08 00:47 49.57444 -60.02650 34643 ft 535 kts 50°
2026-05-08 00:48 49.62354 -59.94023 34638 ft 535 kts 50°
2026-05-08 00:48 49.67254 -59.85383 34637 ft 535 kts 50°
2026-05-08 00:49 49.72144 -59.76733 34580 ft 532 kts 50°
2026-05-08 00:49 49.76996 -59.68122 34647 ft 531 kts 50°
2026-05-08 00:50 49.81843 -59.59491 34637 ft 531 kts 50°
2026-05-08 00:50 49.86690 -59.50831 34647 ft 531 kts 51°
2026-05-08 00:51 49.91508 -59.42193 34630 ft 528 kts 51°
2026-05-08 00:51 49.96317 -59.33544 34639 ft 529 kts 51°
2026-05-08 00:52 50.01088 -59.24933 34634 ft 529 kts 51°
2026-05-08 00:52 50.05877 -59.16263 34636 ft 527 kts 52°
2026-05-08 00:53 50.10630 -59.07628 34640 ft 524 kts 52°
2026-05-08 00:53 50.15372 -58.98983 34634 ft 525 kts 52°
2026-05-08 00:54 50.20110 -58.90319 34632 ft 525 kts 52°
2026-05-08 00:54 50.24834 -58.81649 34635 ft 522 kts 53°
2026-05-08 00:55 50.29539 -58.72989 34635 ft 522 kts 53°
2026-05-08 00:55 50.34208 -58.64362 34633 ft 522 kts 53°
2026-05-08 00:56 50.38896 -58.55675 34622 ft 522 kts 54°
2026-05-08 00:56 50.43575 -58.46971 34635 ft 522 kts 54°
2026-05-08 00:57 50.48245 -58.38258 34639 ft 521 kts 54°
2026-05-08 00:57 50.52910 -58.29524 34637 ft 522 kts 54°
2026-05-08 00:58 50.57557 -58.20794 34633 ft 518 kts 55°
2026-05-08 00:58 50.62160 -58.12117 34602 ft 514 kts 55°
2026-05-08 00:59 50.66726 -58.03482 34634 ft 513 kts 55°
2026-05-08 00:59 50.71280 -57.94840 34639 ft 512 kts 56°
2026-05-08 01:00 50.75786 -57.86262 34632 ft 509 kts 56°
2026-05-08 01:00 50.80295 -57.77647 34641 ft 509 kts 56°
2026-05-08 01:01 50.84805 -57.69003 34650 ft 509 kts 56°
2026-05-08 01:01 50.89302 -57.60354 34627 ft 509 kts 57°
2026-05-08 01:02 50.93800 -57.51675 34650 ft 510 kts 57°
2026-05-08 01:02 50.98296 -57.42970 34646 ft 510 kts 57°
2026-05-08 01:03 51.02782 -57.34256 34651 ft 510 kts 57°
2026-05-08 01:03 51.07265 -57.25518 34637 ft 512 kts 56°
2026-05-08 01:04 51.11786 -57.16675 34654 ft 516 kts 56°
2026-05-08 01:04 51.16308 -57.07799 34658 ft 516 kts 56°
2026-05-08 01:05 51.20821 -56.98912 34670 ft 516 kts 57°
2026-05-08 01:05 51.25326 -56.90009 34671 ft 516 kts 57°
2026-05-08 01:06 51.29832 -56.81073 34682 ft 515 kts 57°
2026-05-08 01:06 51.34289 -56.72203 34673 ft 515 kts 57°
2026-05-08 01:07 51.38771 -56.63253 34682 ft 515 kts 57°
2026-05-08 01:07 51.43264 -56.54250 34684 ft 520 kts 57°
2026-05-08 01:08 51.47786 -56.45164 34692 ft 521 kts 57°
2026-05-08 01:08 51.52305 -56.36052 34700 ft 523 kts 56°
2026-05-08 01:09 51.56836 -56.26886 34704 ft 524 kts 55°
2026-05-08 01:09 51.61367 -56.17688 34737 ft 525 kts 55°
2026-05-08 01:10 51.65900 -56.08454 34730 ft 525 kts 56°
2026-05-08 01:10 51.70424 -55.99205 34728 ft 525 kts 56°
2026-05-08 01:11 51.74941 -55.89940 34725 ft 525 kts 56°
2026-05-08 01:11 51.79450 -55.80659 34729 ft 525 kts 56°
2026-05-08 01:12 51.83947 -55.71369 34741 ft 525 kts 56°
2026-05-08 01:12 51.88443 -55.62050 34741 ft 525 kts 56°
2026-05-08 01:13 51.92902 -55.52774 34733 ft 526 kts 56°
2026-05-08 01:13 51.97397 -55.43392 34742 ft 526 kts 56°
2026-05-08 01:14 52.01882 -55.33999 34744 ft 526 kts 56°
2026-05-08 01:14 52.06356 -55.24593 34744 ft 526 kts 56°
2026-05-08 01:15 52.10947 -55.15346 34741 ft 525 kts 47°
2026-05-08 01:15 52.16095 -55.06896 34751 ft 526 kts 47°
2026-05-08 01:16 52.20409 -54.99917 34751 ft 525 kts 47°
2026-05-08 01:16 52.25598 -54.91521 34757 ft 525 kts 47°
2026-05-08 01:17 52.30760 -54.83141 34756 ft 521 kts 47°
2026-05-08 01:17 52.35895 -54.74776 34758 ft 521 kts 47°
2026-05-08 01:18 52.41021 -54.66397 34765 ft 521 kts 47°
2026-05-08 01:18 52.46147 -54.57989 34770 ft 521 kts 47°
2026-05-08 01:19 52.51224 -54.49632 34783 ft 520 kts 47°
2026-05-08 01:19 52.56325 -54.41206 34790 ft 520 kts 47°
2026-05-08 01:20 52.61426 -54.32749 34798 ft 520 kts 47°
2026-05-08 01:20 52.66518 -54.24280 34793 ft 519 kts 47°
2026-05-08 01:21 52.71564 -54.15856 34801 ft 519 kts 47°
2026-05-08 01:21 52.76660 -54.07318 34814 ft 519 kts 47°
2026-05-08 01:22 52.81720 -53.98811 34816 ft 519 kts 47°
2026-05-08 01:22 52.86734 -53.90354 34816 ft 517 kts 47°
2026-05-08 01:23 52.91765 -53.81836 34823 ft 517 kts 47°
2026-05-08 01:23 52.96788 -53.73302 34822 ft 517 kts 47°
2026-05-08 01:24 53.01804 -53.64750 34828 ft 517 kts 47°
2026-05-08 01:24 53.06811 -53.56182 34833 ft 517 kts 48°
2026-05-08 01:25 53.11820 -53.47580 34833 ft 517 kts 48°
2026-05-08 01:25 53.16819 -53.38966 34829 ft 517 kts 48°
2026-05-08 01:26 53.21808 -53.30339 34836 ft 516 kts 47°
2026-05-08 01:26 53.26783 -53.21702 34838 ft 515 kts 47°
2026-05-08 01:27 53.31748 -53.13055 34846 ft 515 kts 48°
2026-05-08 01:27 53.36671 -53.04448 34856 ft 515 kts 48°
2026-05-08 01:28 53.41621 -52.95764 34851 ft 515 kts 48°
2026-05-08 01:28 53.46560 -52.87066 34862 ft 514 kts 48°
2026-05-08 01:29 53.51486 -52.78361 34861 ft 514 kts 48°
2026-05-08 01:29 53.56416 -52.69618 34958 ft 515 kts 48°
2026-05-08 01:29 53.58875 -52.65246 35245 ft 514 kts 48°
2026-05-08 01:30 53.61325 -52.60881 35548 ft 512 kts 48°
2026-05-08 01:30 53.63767 -52.56523 35844 ft 510 kts 48°
2026-05-08 01:30 53.66167 -52.52231 36133 ft 508 kts 48°
2026-05-08 01:30 53.68584 -52.47901 36409 ft 507 kts 48°
2026-05-08 01:31 53.70996 -52.43573 36673 ft 505 kts 48°
2026-05-08 01:31 53.73397 -52.39257 36894 ft 504 kts 48°
2026-05-08 01:31 53.75794 -52.34940 36911 ft 504 kts 48°
2026-05-08 01:32 53.80567 -52.26321 36894 ft 501 kts 48°
2026-05-08 01:32 53.85330 -52.17692 36885 ft 501 kts 48°
2026-05-08 01:33 53.90092 -52.09030 36911 ft 502 kts 49°
2026-05-08 01:33 53.94846 -52.00354 36908 ft 502 kts 49°
2026-05-08 01:34 53.99589 -51.91666 36917 ft 501 kts 48°
2026-05-08 01:34 54.04295 -51.83015 36922 ft 501 kts 48°
2026-05-08 01:35 54.09026 -51.74286 36922 ft 501 kts 49°
2026-05-08 01:35 54.13750 -51.65539 36928 ft 501 kts 49°
2026-05-08 01:36 54.18471 -51.56766 36933 ft 502 kts 48°
2026-05-08 01:36 54.23186 -51.47971 36933 ft 502 kts 48°
2026-05-08 01:37 54.27894 -51.39157 36941 ft 502 kts 48°
2026-05-08 01:37 54.32591 -51.30333 36941 ft 501 kts 48°
2026-05-08 01:38 54.37279 -51.21493 36946 ft 500 kts 48°
2026-05-08 01:38 54.41917 -51.12715 36955 ft 499 kts 48°
2026-05-08 01:39 54.46578 -51.03862 36953 ft 499 kts 48°
2026-05-08 01:39 54.51235 -50.94984 36960 ft 499 kts 48°
2026-05-08 01:40 54.55877 -50.86101 36959 ft 498 kts 48°
2026-05-08 01:40 54.60506 -50.77211 36967 ft 498 kts 48°
2026-05-08 01:41 54.65122 -50.68313 36971 ft 498 kts 48°
2026-05-08 01:41 54.69732 -50.59394 36971 ft 497 kts 48°
2026-05-08 01:42 54.74336 -50.50457 36974 ft 496 kts 47°
2026-05-08 01:42 54.78921 -50.41528 36985 ft 496 kts 47°
2026-05-08 01:43 54.83501 -50.32577 36984 ft 496 kts 48°
2026-05-08 01:43 54.88080 -50.23597 36991 ft 496 kts 48°
2026-05-08 01:44 54.92614 -50.14673 36991 ft 496 kts 48°
2026-05-08 01:44 54.97174 -50.05666 36996 ft 496 kts 48°
2026-05-08 01:45 55.01917 -49.96970 37007 ft 495 kts 42°
2026-05-08 01:45 55.06935 -49.88736 36991 ft 495 kts 42°
2026-05-08 01:46 55.11960 -49.80529 37003 ft 493 kts 41°
2026-05-08 01:46 55.16955 -49.72347 37002 ft 492 kts 41°
2026-05-08 01:47 55.21958 -49.64122 37006 ft 492 kts 41°
2026-05-08 01:47 55.26941 -49.55901 37014 ft 492 kts 42°
2026-05-08 01:48 55.34404 -49.43533 37022 ft 491 kts 41°
2026-05-08 01:48 55.39365 -49.35273 37023 ft 491 kts 41°
2026-05-08 01:49 55.44319 -49.26995 37031 ft 491 kts 41°
2026-05-08 01:49 55.49267 -49.18697 37031 ft 491 kts 41°
2026-05-08 01:50 55.54212 -49.10375 37032 ft 490 kts 41°
2026-05-08 01:50 55.59116 -49.02091 37042 ft 490 kts 41°
2026-05-08 01:51 55.64041 -48.93740 37042 ft 490 kts 41°
2026-05-08 01:51 55.68959 -48.85370 37045 ft 490 kts 41°
2026-05-08 01:52 55.73877 -48.76970 37047 ft 489 kts 41°
2026-05-08 01:52 55.78766 -48.68589 37048 ft 488 kts 41°
2026-05-08 01:53 55.83657 -48.60173 37057 ft 489 kts 41°
2026-05-08 01:53 55.88537 -48.51747 37057 ft 489 kts 41°
2026-05-08 01:54 55.93378 -48.43358 37066 ft 487 kts 41°
2026-05-08 01:54 55.98203 -48.34962 37054 ft 484 kts 41°
2026-05-08 01:55 56.03023 -48.26545 37059 ft 484 kts 41°
2026-05-08 01:55 56.07832 -48.18117 37066 ft 484 kts 41°
2026-05-08 01:56 56.12638 -48.09664 37085 ft 483 kts 41°
2026-05-08 01:56 56.17384 -48.01284 37079 ft 476 kts 41°
2026-05-08 01:57 56.22104 -47.92921 37073 ft 477 kts 41°
2026-05-08 01:57 56.26786 -47.84592 37072 ft 477 kts 41°
2026-05-08 01:58 56.31495 -47.76188 37075 ft 477 kts 41°
2026-05-08 01:58 56.36204 -47.67751 37074 ft 478 kts 41°
2026-05-08 01:59 56.40918 -47.59274 37077 ft 478 kts 42°
2026-05-08 01:59 56.45630 -47.50769 37078 ft 478 kts 42°
2026-05-08 02:00 56.50332 -47.42251 37087 ft 478 kts 42°
2026-05-08 02:00 56.55038 -47.33694 37084 ft 480 kts 43°
2026-05-08 02:01 56.59730 -47.25129 37087 ft 482 kts 43°
2026-05-08 02:01 56.64478 -47.16431 37087 ft 482 kts 43°
2026-05-08 02:02 56.69163 -47.07815 37089 ft 482 kts 43°
2026-05-08 02:02 56.73869 -46.99128 37094 ft 482 kts 43°
2026-05-08 02:03 56.78574 -46.90409 37091 ft 482 kts 43°
2026-05-08 02:03 56.83268 -46.81680 37094 ft 482 kts 43°
2026-05-08 02:04 56.87954 -46.72929 37094 ft 482 kts 43°
2026-05-08 02:04 56.91851 -46.65629 37097 ft 482 kts 44°
2026-05-08 02:05 56.96530 -46.56831 37096 ft 482 kts 44°
2026-05-08 02:05 57.01965 -46.46570 37100 ft 482 kts 44°
2026-05-08 02:06 57.05873 -46.39163 37100 ft 482 kts 44°
2026-05-08 02:06 57.10501 -46.30360 37100 ft 482 kts 44°
2026-05-08 02:07 57.15151 -46.21481 37108 ft 480 kts 44°
2026-05-08 02:07 57.19773 -46.12622 37102 ft 479 kts 44°
2026-05-08 02:08 57.24390 -46.03739 37107 ft 480 kts 44°
2026-05-08 02:08 57.29008 -45.94819 37105 ft 480 kts 44°
2026-05-08 02:09 57.33622 -45.85872 37106 ft 480 kts 44°
2026-05-08 02:09 57.38191 -45.76977 37106 ft 478 kts 44°
2026-05-08 02:10 57.42763 -45.68044 37115 ft 478 kts 44°
2026-05-08 02:10 57.47332 -45.59080 37118 ft 478 kts 44°
2026-05-08 02:11 57.51895 -45.50093 37117 ft 478 kts 44°
2026-05-08 02:11 57.56458 -45.41072 37128 ft 477 kts 44°
2026-05-08 02:12 57.60992 -45.32073 37123 ft 476 kts 44°
2026-05-08 02:12 57.65519 -45.23051 37134 ft 476 kts 44°
2026-05-08 02:13 57.70037 -45.14013 37135 ft 476 kts 44°
2026-05-08 02:13 57.74524 -45.05004 37153 ft 476 kts 44°
2026-05-08 02:14 57.79015 -44.95948 37147 ft 473 kts 44°
2026-05-08 02:14 57.83490 -44.86890 37153 ft 473 kts 45°
2026-05-08 02:15 57.87958 -44.77811 37156 ft 473 kts 45°
2026-05-08 02:15 57.92418 -44.68713 37156 ft 473 kts 45°
2026-05-08 02:16 57.96867 -44.59600 37171 ft 472 kts 45°
2026-05-08 02:16 58.01297 -44.50491 37165 ft 471 kts 45°
2026-05-08 02:17 58.05721 -44.41358 37168 ft 471 kts 45°
2026-05-08 02:17 58.10138 -44.32203 37165 ft 471 kts 45°
2026-05-08 02:18 58.14549 -44.23025 37173 ft 471 kts 45°
2026-05-08 02:18 58.18945 -44.13840 37180 ft 470 kts 45°
2026-05-08 02:19 58.23335 -44.04634 37180 ft 470 kts 45°
2026-05-08 02:19 58.27691 -43.95460 37187 ft 470 kts 45°
2026-05-08 02:20 58.32067 -43.86210 37187 ft 470 kts 45°
2026-05-08 02:20 58.36438 -43.76933 37209 ft 470 kts 45°
2026-05-08 02:21 58.40791 -43.67654 37195 ft 469 kts 45°
2026-05-08 02:21 58.45133 -43.58364 37201 ft 469 kts 45°
2026-05-08 02:22 58.49470 -43.49047 37199 ft 469 kts 45°
2026-05-08 02:22 58.53802 -43.39703 37212 ft 469 kts 45°
2026-05-08 02:23 58.58116 -43.30360 37211 ft 466 kts 45°
2026-05-08 02:23 58.62389 -43.21067 37233 ft 465 kts 45°
2026-05-08 02:24 58.66664 -43.11734 37227 ft 465 kts 45°
2026-05-08 02:24 58.70935 -43.02371 37234 ft 465 kts 45°
2026-05-08 02:25 58.75164 -42.93064 37248 ft 465 kts 45°
2026-05-08 02:25 58.79399 -42.83706 37235 ft 461 kts 45°
2026-05-08 02:26 58.83610 -42.74362 37257 ft 462 kts 45°
2026-05-08 02:26 58.87815 -42.64995 37254 ft 462 kts 45°
2026-05-08 02:27 58.92022 -42.55586 37266 ft 462 kts 45°
2026-05-08 02:27 58.96215 -42.46168 37265 ft 462 kts 45°
2026-05-08 02:28 59.00407 -42.36715 37275 ft 462 kts 46°
2026-05-08 02:28 59.04588 -42.27249 37270 ft 462 kts 46°
2026-05-08 02:29 59.08764 -42.17754 37276 ft 462 kts 46°
2026-05-08 02:29 59.12908 -42.08295 37276 ft 462 kts 46°
2026-05-08 02:30 59.17061 -41.98774 37288 ft 459 kts 46°
2026-05-08 02:30 59.21182 -41.89291 37283 ft 458 kts 46°
2026-05-08 02:31 59.25299 -41.79776 37286 ft 458 kts 46°
2026-05-08 02:31 59.29409 -41.70238 37288 ft 458 kts 46°
2026-05-08 02:32 59.33512 -41.60679 37296 ft 458 kts 46°
2026-05-08 02:32 59.37606 -41.51099 37297 ft 458 kts 47°
2026-05-08 02:33 59.41681 -41.41525 37299 ft 457 kts 47°
2026-05-08 02:33 59.45755 -41.31915 37297 ft 458 kts 47°
2026-05-08 02:34 59.49823 -41.22278 37305 ft 458 kts 47°
2026-05-08 02:34 59.53885 -41.12616 37307 ft 458 kts 47°
2026-05-08 02:35 59.57943 -41.02932 37315 ft 457 kts 47°
2026-05-08 02:35 59.61991 -40.93233 37309 ft 458 kts 47°
2026-05-08 02:36 59.66008 -40.83572 37316 ft 458 kts 47°
2026-05-08 02:36 59.70041 -40.73832 37315 ft 458 kts 47°
2026-05-08 02:37 59.74071 -40.64060 37343 ft 458 kts 47°
2026-05-08 02:37 59.78090 -40.54276 37321 ft 456 kts 48°
2026-05-08 02:38 59.82090 -40.44499 37316 ft 456 kts 48°
2026-05-08 02:38 59.86084 -40.34697 37330 ft 456 kts 48°
2026-05-08 02:39 59.90074 -40.24865 37322 ft 456 kts 48°
2026-05-08 02:39 59.94056 -40.15012 37344 ft 456 kts 48°
2026-05-08 02:40 59.98023 -40.05156 37320 ft 454 kts 48°
2026-05-08 02:40 60.01810 -39.95028 37348 ft 456 kts 51°
2026-05-08 02:41 60.05541 -39.84761 37329 ft 455 kts 51°
2026-05-08 02:41 60.09288 -39.74527 37332 ft 456 kts 51°
2026-05-08 02:42 60.13005 -39.64346 37351 ft 456 kts 51°
2026-05-08 02:42 60.16744 -39.54060 37339 ft 455 kts 51°
2026-05-08 02:43 60.20471 -39.43762 37338 ft 455 kts 51°
2026-05-08 02:43 60.24188 -39.33446 37342 ft 455 kts 51°
2026-05-08 02:44 60.27898 -39.23104 37341 ft 455 kts 51°
2026-05-08 02:44 60.31602 -39.12735 37370 ft 456 kts 51°
2026-05-08 02:45 60.35294 -39.02349 37344 ft 455 kts 51°
2026-05-08 02:45 60.38976 -38.91948 37350 ft 455 kts 51°
2026-05-08 02:46 60.42654 -38.81509 37349 ft 455 kts 51°
2026-05-08 02:46 60.46322 -38.71055 37349 ft 455 kts 52°
2026-05-08 02:47 60.49985 -38.60567 37372 ft 455 kts 51°
2026-05-08 02:47 60.53628 -38.50088 37352 ft 453 kts 52°
2026-05-08 02:48 60.57235 -38.39667 37354 ft 454 kts 52°
2026-05-08 02:48 60.60859 -38.29150 37357 ft 454 kts 52°
2026-05-08 02:49 60.64477 -38.18601 37357 ft 454 kts 52°
2026-05-08 02:49 60.68090 -38.08019 37391 ft 454 kts 51°
2026-05-08 02:50 60.71679 -37.97461 37358 ft 451 kts 52°
2026-05-08 02:50 60.75255 -37.86892 37363 ft 452 kts 52°
2026-05-08 02:51 60.78800 -37.76367 37363 ft 452 kts 52°
2026-05-08 02:51 60.82362 -37.65742 37363 ft 452 kts 52°
2026-05-08 02:52 60.85915 -37.55096 37362 ft 452 kts 52°
2026-05-08 02:52 60.89459 -37.44430 37365 ft 452 kts 52°
2026-05-08 02:53 60.92997 -37.33730 37368 ft 452 kts 52°
2026-05-08 02:53 60.96527 -37.23009 37368 ft 452 kts 52°
2026-05-08 02:54 60.99451 -37.14085 37367 ft 452 kts 52°
2026-05-08 02:54 61.02965 -37.03321 37389 ft 452 kts 52°
2026-05-08 02:55 61.08216 -36.87136 37371 ft 452 kts 52°
2026-05-08 02:56 61.11707 -36.76316 37376 ft 452 kts 52°
2026-05-08 02:56 61.15192 -36.65462 37373 ft 452 kts 52°
2026-05-08 02:57 61.18644 -36.54659 37370 ft 452 kts 53°
2026-05-08 02:57 61.22108 -36.43771 37391 ft 453 kts 52°
2026-05-08 02:58 61.25571 -36.32832 37374 ft 453 kts 52°
2026-05-08 02:58 61.29024 -36.21871 37372 ft 453 kts 53°
2026-05-08 02:59 61.32473 -36.10875 37372 ft 453 kts 53°
2026-05-08 02:59 61.35910 -35.99859 37374 ft 453 kts 53°
2026-05-08 03:00 61.39340 -35.88820 37400 ft 454 kts 53°
2026-05-08 03:00 61.42767 -35.77729 37382 ft 454 kts 53°
2026-05-08 03:01 61.46165 -35.66683 37374 ft 454 kts 53°
2026-05-08 03:01 61.49576 -35.55542 37372 ft 454 kts 53°
2026-05-08 03:02 61.52977 -35.44380 37374 ft 455 kts 53°
2026-05-08 03:02 61.56372 -35.33181 37398 ft 455 kts 53°
2026-05-08 03:03 61.59751 -35.21979 37377 ft 453 kts 53°
2026-05-08 03:03 61.63118 -35.10764 37375 ft 454 kts 53°
2026-05-08 03:04 61.66477 -34.99521 37376 ft 454 kts 53°
2026-05-08 03:04 61.69832 -34.88233 37378 ft 454 kts 54°
2026-05-08 03:05 61.73153 -34.77006 37405 ft 454 kts 54°
2026-05-08 03:05 61.76471 -34.65736 37374 ft 450 kts 54°
2026-05-08 03:06 61.79764 -34.54491 37377 ft 451 kts 54°
2026-05-08 03:06 61.83054 -34.43203 37379 ft 451 kts 54°
2026-05-08 03:07 61.86335 -34.31891 37382 ft 451 kts 54°
2026-05-08 03:07 61.89608 -34.20550 37384 ft 451 kts 54°
2026-05-08 03:08 61.92867 -34.09202 37384 ft 448 kts 54°
2026-05-08 03:08 61.96101 -33.97881 37388 ft 448 kts 54°
2026-05-08 03:09 61.99329 -33.86526 37377 ft 448 kts 54°
2026-05-08 03:09 62.02530 -33.75209 37386 ft 449 kts 54°
2026-05-08 03:10 62.05739 -33.63808 37378 ft 449 kts 54°
2026-05-08 03:10 62.08941 -33.52374 37388 ft 448 kts 54°
2026-05-08 03:11 62.12120 -33.40964 37392 ft 447 kts 54°
2026-05-08 03:11 62.15297 -33.29504 37387 ft 447 kts 54°
2026-05-08 03:12 62.18462 -33.18027 37382 ft 447 kts 54°
2026-05-08 03:12 62.21615 -33.06538 37384 ft 447 kts 54°
2026-05-08 03:13 62.24740 -32.95093 37416 ft 447 kts 54°
2026-05-08 03:13 62.27865 -32.83587 37381 ft 445 kts 54°
2026-05-08 03:14 62.30980 -32.72059 37385 ft 446 kts 54°
2026-05-08 03:14 62.34088 -32.60500 37384 ft 446 kts 54°
2026-05-08 03:15 62.37187 -32.48914 37381 ft 446 kts 54°
2026-05-08 03:15 62.40275 -32.37307 37430 ft 446 kts 54°
2026-05-08 03:16 62.43343 -32.25717 37375 ft 443 kts 54°
2026-05-08 03:16 62.46395 -32.14127 37383 ft 444 kts 54°
2026-05-08 03:17 62.49435 -32.02520 37378 ft 444 kts 54°
2026-05-08 03:17 62.52466 -31.90891 37379 ft 444 kts 54°
2026-05-08 03:18 62.55493 -31.79217 37380 ft 444 kts 54°
2026-05-08 03:18 62.58506 -31.67533 37382 ft 444 kts 55°
2026-05-08 03:19 62.61514 -31.55805 37382 ft 444 kts 55°
2026-05-08 03:19 62.64491 -31.44140 37382 ft 444 kts 55°
2026-05-08 03:20 62.67481 -31.32362 37380 ft 445 kts 55°
2026-05-08 03:20 62.70458 -31.20568 37378 ft 444 kts 55°
2026-05-08 03:21 62.73426 -31.08754 37401 ft 443 kts 55°
2026-05-08 03:21 62.76373 -30.96978 37379 ft 441 kts 55°
2026-05-08 03:22 62.79310 -30.85178 37367 ft 442 kts 55°
2026-05-08 03:22 62.82240 -30.73350 37368 ft 442 kts 55°
2026-05-08 03:23 62.85158 -30.61509 37367 ft 442 kts 55°
2026-05-08 03:23 62.88049 -30.49719 37411 ft 442 kts 55°
2026-05-08 03:24 62.90941 -30.37867 37366 ft 439 kts 55°
2026-05-08 03:24 62.93816 -30.26020 37369 ft 440 kts 56°
2026-05-08 03:25 62.96686 -30.14135 37371 ft 440 kts 56°
2026-05-08 03:25 62.99541 -30.02240 37359 ft 441 kts 57°
2026-05-08 03:25 63.00629 -29.95861 37360 ft 450 kts 69°
2026-05-08 03:26 63.01468 -29.89234 37344 ft 450 kts 67°
2026-05-08 03:26 63.03254 -29.76027 37369 ft 450 kts 66°
2026-05-08 03:27 63.05028 -29.62809 37355 ft 449 kts 67°
2026-05-08 03:27 63.06790 -29.49573 37355 ft 450 kts 67°
2026-05-08 03:28 63.08541 -29.36306 37355 ft 450 kts 67°
2026-05-08 03:28 63.10280 -29.23024 37351 ft 450 kts 67°
2026-05-08 03:29 63.11994 -29.09820 37401 ft 450 kts 67°
2026-05-08 03:29 63.13708 -28.96509 37347 ft 450 kts 67°
2026-05-08 03:30 63.16261 -28.76471 37351 ft 451 kts 67°
2026-05-08 03:31 63.19618 -28.49711 37347 ft 451 kts 68°
2026-05-08 03:32 63.22108 -28.29575 37346 ft 451 kts 67°
2026-05-08 03:32 63.23736 -28.16250 37340 ft 450 kts 67°
2026-05-08 03:33 63.25363 -28.02823 37335 ft 450 kts 67°
2026-05-08 03:33 63.26976 -27.89387 37336 ft 451 kts 68°
2026-05-08 03:34 63.28580 -27.75914 37333 ft 451 kts 68°
2026-05-08 03:34 63.30171 -27.62421 37385 ft 451 kts 67°
2026-05-08 03:35 63.31749 -27.48917 37332 ft 451 kts 68°
2026-05-08 03:35 63.33315 -27.35392 37331 ft 451 kts 68°
2026-05-08 03:36 63.34868 -27.21848 37330 ft 451 kts 68°
2026-05-08 03:36 63.36416 -27.08269 37325 ft 452 kts 68°
2026-05-08 03:37 63.37949 -26.94700 37331 ft 451 kts 68°
2026-05-08 03:37 63.39828 -26.81513 37340 ft 446 kts 64°
2026-05-08 03:38 63.41715 -26.68429 37324 ft 446 kts 65°
2026-05-08 03:38 63.43593 -26.55211 37319 ft 446 kts 65°
2026-05-08 03:39 63.45457 -26.41978 37316 ft 446 kts 65°
2026-05-08 03:39 63.47311 -26.28714 37245 ft 444 kts 65°
2026-05-08 03:39 63.48227 -26.22126 36424 ft 446 kts 64°
2026-05-08 03:40 63.49156 -26.15434 35514 ft 452 kts 64°
2026-05-08 03:40 63.50073 -26.08749 35022 ft 447 kts 64°
2026-05-08 03:40 63.50994 -26.02059 34128 ft 451 kts 63°
2026-05-08 03:40 63.51903 -25.95392 33519 ft 445 kts 63°
2026-05-08 03:41 63.52814 -25.88715 32413 ft 451 kts 63°
2026-05-08 03:41 63.53721 -25.82011 31793 ft 447 kts 63°
2026-05-08 03:41 63.54319 -25.77594 31142 ft 448 kts 63°
2026-05-08 03:41 63.55226 -25.70858 30216 ft 451 kts 63°
2026-05-08 03:42 63.56125 -25.64147 29205 ft 451 kts 63°
2026-05-08 03:42 63.57027 -25.57393 28183 ft 452 kts 64°
2026-05-08 03:42 63.57925 -25.50643 27379 ft 449 kts 64°
2026-05-08 03:42 63.58815 -25.43924 26469 ft 449 kts 64°
2026-05-08 03:43 63.59704 -25.37191 25530 ft 451 kts 65°
2026-05-08 03:43 63.60595 -25.30414 24497 ft 454 kts 66°
2026-05-08 03:43 63.61479 -25.23642 23863 ft 448 kts 66°
2026-05-08 03:43 63.62350 -25.16957 23112 ft 442 kts 66°
2026-05-08 03:44 63.63193 -25.10451 22285 ft 433 kts 67°
2026-05-08 03:44 63.64030 -25.03980 20967 ft 429 kts 68°
2026-05-08 03:44 63.64856 -24.97567 19730 ft 424 kts 68°
2026-05-08 03:44 63.65669 -24.91228 18596 ft 419 kts 69°
2026-05-08 03:45 63.66472 -24.84961 17355 ft 413 kts 69°
2026-05-08 03:45 63.67258 -24.78792 16223 ft 407 kts 71°
2026-05-08 03:45 63.67750 -24.72522 15067 ft 405 kts 78°
2026-05-08 03:45 63.68113 -24.66278 14075 ft 399 kts 79°
2026-05-08 03:46 63.68452 -24.60147 13353 ft 384 kts 79°
2026-05-08 03:46 63.68761 -24.54390 13264 ft 356 kts 79°
2026-05-08 03:46 63.69046 -24.49013 13070 ft 335 kts 79°
2026-05-08 03:46 63.69311 -24.43949 12834 ft 317 kts 79°
2026-05-08 03:47 63.69561 -24.39143 12610 ft 300 kts 79°
2026-05-08 03:47 63.69797 -24.34572 12431 ft 288 kts 79°
2026-05-08 03:47 63.70024 -24.30144 12253 ft 281 kts 78°
2026-05-08 03:47 63.70244 -24.25821 12081 ft 274 kts 78°
2026-05-08 03:48 63.70457 -24.21620 11926 ft 267 kts 78°
2026-05-08 03:48 63.70668 -24.17423 11794 ft 274 kts 79°
2026-05-08 03:48 63.70884 -24.13108 11656 ft 279 kts 79°
2026-05-08 03:48 63.71100 -24.08791 11510 ft 281 kts 79°
2026-05-08 03:49 63.71315 -24.04410 11330 ft 280 kts 79°
2026-05-08 03:49 63.71529 -24.00044 11186 ft 279 kts 79°
2026-05-08 03:49 63.71741 -23.95692 11065 ft 279 kts 79°
2026-05-08 03:49 63.71952 -23.91331 10939 ft 279 kts 79°
2026-05-08 03:50 63.72160 -23.86995 10805 ft 278 kts 79°
2026-05-08 03:50 63.72367 -23.82673 10663 ft 277 kts 79°
2026-05-08 03:50 63.72572 -23.78358 10527 ft 276 kts 79°
2026-05-08 03:50 63.72775 -23.74051 10396 ft 276 kts 79°
2026-05-08 03:51 63.72977 -23.69743 10202 ft 276 kts 79°
2026-05-08 03:51 63.73178 -23.65419 9882 ft 277 kts 79°
2026-05-08 03:51 63.73378 -23.61100 9553 ft 276 kts 79°
2026-05-08 03:51 63.73576 -23.56807 9245 ft 273 kts 79°
2026-05-08 03:52 63.73770 -23.52558 8955 ft 271 kts 79°
2026-05-08 03:52 63.73958 -23.48409 8672 ft 268 kts 79°
2026-05-08 03:52 63.74146 -23.44240 8387 ft 265 kts 79°
2026-05-08 03:52 63.74330 -23.40117 8105 ft 263 kts 79°
2026-05-08 03:53 63.74512 -23.36032 7827 ft 260 kts 79°
2026-05-08 03:53 63.74692 -23.31968 7468 ft 261 kts 79°
2026-05-08 03:53 63.74872 -23.27864 7082 ft 264 kts 79°
2026-05-08 03:53 63.75049 -23.23787 6740 ft 256 kts 79°
2026-05-08 03:54 63.75220 -23.19846 6437 ft 249 kts 79°
2026-05-08 03:54 63.75386 -23.15971 6162 ft 247 kts 79°
2026-05-08 03:54 63.75550 -23.12125 5892 ft 245 kts 79°
2026-05-08 03:54 63.75712 -23.08305 5637 ft 243 kts 79°
2026-05-08 03:55 63.75873 -23.04519 5369 ft 241 kts 79°
2026-05-08 03:55 63.76031 -23.00763 5102 ft 239 kts 79°
2026-05-08 03:55 63.76186 -22.97035 4828 ft 237 kts 80°
2026-05-08 03:55 63.76340 -22.93350 4585 ft 234 kts 79°
2026-05-08 03:56 63.76486 -22.89773 4495 ft 223 kts 78°
2026-05-08 03:56 63.76626 -22.86359 4381 ft 214 kts 79°
2026-05-08 03:56 63.76800 -22.83092 4242 ft 205 kts 70°
2026-05-08 03:56 63.77237 -22.80128 4146 ft 200 kts 64°
2026-05-08 03:57 63.77711 -22.77207 4043 ft 192 kts 64°
2026-05-08 03:57 63.78168 -22.74393 3920 ft 189 kts 63°
2026-05-08 03:57 63.78613 -22.71645 3802 ft 188 kts 63°
2026-05-08 03:57 63.79062 -22.68874 3689 ft 188 kts 63°
2026-05-08 03:58 63.79513 -22.66089 3485 ft 189 kts 63°
2026-05-08 03:58 63.79997 -22.63355 3304 ft 183 kts 51°
2026-05-08 03:58 63.80907 -22.61596 3152 ft 167 kts 17°
2026-05-08 03:58 63.82006 -22.60985 3013 ft 161 kts
2026-05-08 03:59 63.83101 -22.60740 2840 ft 154 kts
2026-05-08 03:59 63.84154 -22.60626 2682 ft 150 kts
2026-05-08 03:59 63.85197 -22.60578 2470 ft 151 kts
2026-05-08 03:59 63.86261 -22.60556 2261 ft 154 kts
2026-05-08 04:00 63.87314 -22.60544 2042 ft 149 kts 360°
2026-05-08 04:00 63.88346 -22.60540 1865 ft 148 kts 360°
2026-05-08 04:00 63.89358 -22.60539 1646 ft 139 kts 360°
2026-05-08 04:00 63.90300 -22.60538 1446 ft 133 kts 360°
2026-05-08 04:01 63.91218 -22.60537 1268 ft 132 kts 360°
2026-05-08 04:01 63.92134 -22.60538 1057 ft 132 kts 360°
2026-05-08 04:01 63.93056 -22.60543 902 ft 132 kts 360°
2026-05-08 04:01 63.93974 -22.60558 688 ft 131 kts 360°
2026-05-08 04:02 63.94876 -22.60564 526 ft 128 kts
2026-05-08 04:02 63.95782 -22.60562 334 ft 132 kts
2026-05-08 04:02 63.96704 -22.60555 163 ft 135 kts
2026-05-08 04:02 63.97528 -22.60542 175 ft 99 kts
2026-05-08 04:03 63.98069 -22.60540 174 ft 56 kts
2026-05-08 04:03 63.98670 -22.60540 179 ft 33 kts 359°
2026-05-08 04:03 63.98803 -22.60603 179 ft 15 kts 316°
2026-05-08 04:04 63.98886 -22.60791 176 ft 19 kts 315°
2026-05-08 04:04 63.98970 -22.60936 174 ft 13 kts 351°
2026-05-08 04:04 63.99073 -22.60938 171 ft 17 kts 360°
2026-05-08 04:04 63.99169 -22.60990 166 ft 14 kts 298°
2026-05-08 04:05 63.99173 -22.61234 160 ft 15 kts 270°
2026-05-08 04:05 63.99210 -22.61422 155 ft 15 kts 351°
2026-05-08 04:05 63.99335 -22.61429 149 ft 20 kts
2026-05-08 04:05 63.99446 -22.61437 145 ft 10 kts 340°
2026-05-08 04:06 63.99471 -22.61580 145 ft 11 kts 270°
2026-05-08 04:06 63.99470 -22.61777 145 ft 10 kts 270°
2026-05-08 04:06 63.99449 -22.61831 145 ft 5 kts 187°
2026-05-08 04:06 63.99413 -22.61829 145 ft 2 kts 179°
2026-05-08 04:07 63.99407 -22.61829 145 ft 0 kts 179°